Location: Unspecified
(40.7945°N, 0.0000°E)
Time: 03:13:46
(UTC+00:00)

Altair - Pass Details

Date: 23 January 2021
Orbit: 1501 x 1682 km, 47.2° (Epoch: 01 March)

Event Time Altitude Azimuth Distance (km) Brightness Sun altitude
Rises 07:27:12 0° 267° (W) 4,900 9.6 0.8°
Reaches altitude 10° 07:30:24 10° 271° (W) 3,927 9.1 1.3°
Maximum altitude 07:40:27 63° 351° (N) 1,846 7.9 3.0°
Drops below altitude 10° 07:50:31 10° 72° (ENE) 3,927 10.3 4.7°
Sets 07:53:44 0° 76° (ENE) 4,900 10.9 5.2°
